Date,TemperatureHighF,TemperatureAvgF,TemperatureLowF,DewpointHighF,DewpointAvgF,DewpointLowF,HumidityHigh,HumidityAvg,HumidityLow,PressureMaxIn,PressureMinIn,WindSpeedMaxMPH,WindSpeedAvgMPH,GustSpeedMaxMPH,PrecipitationSumIn
2013-10-1,71.5,62.0,54.4,59.0,55.0,50.6,89,78,59,29.89,29.79,5,0,5,0.00
2013-10-2,77.8,64.2,55.8,64.5,58.0,53.5,94,81,62,29.89,29.81,3,0,3,0.00
2013-10-3,77.8,66.3,60.7,65.2,58.9,56.0,85,78,63,29.88,29.81,4,0,4,0.00
2013-10-4,80.1,65.5,58.0,65.4,58.6,54.3,90,79,57,29.90,29.84,6,0,6,0.00
2013-10-5,82.4,67.6,60.5,67.3,61.1,57.5,91,80,58,29.87,29.78,2,0,2,0.00
2013-10-6,77.8,67.1,61.6,65.5,60.9,57.7,90,81,65,29.80,29.61,3,0,3,0.00
2013-10-7,68.4,58.3,51.3,60.7,54.6,48.4,95,88,61,29.71,29.57,6,1,6,0.00
2013-10-8,75.6,57.5,49.5,63.0,52.7,47.5,95,85,63,29.84,29.70,2,0,3,0.00
2013-10-9,71.6,58.0,49.5,60.3,52.5,46.7,91,82,66,29.88,29.80,5,0,5,0.00
2013-10-10,68.6,58.3,52.6,56.0,52.0,46.8,95,81,49,29.83,29.74,6,1,6,0.00
2013-10-11,70.6,59.1,50.8,57.7,52.2,48.1,92,79,55,29.77,29.69,6,1,6,0.11
2013-10-12,70.9,60.1,51.8,59.0,54.0,49.5,93,81,62,29.83,29.72,8,1,8,0.00
2013-10-13,71.3,62.0,54.9,62.0,56.5,51.7,90,82,69,29.91,29.82,7,0,7,0.00
2013-10-14,72.7,62.8,57.2,63.7,58.3,53.8,93,86,70,29.91,29.83,4,0,4,0.00
2013-10-15,70.2,60.6,54.5,59.9,55.5,51.9,92,84,68,29.86,29.74,4,0,4,0.00
2013-10-16,68.0,60.1,54.4,59.5,55.0,51.0,89,84,71,29.77,29.67,5,0,5,0.01
2013-10-17,67.0,60.5,55.4,63.9,58.1,53.8,95,92,89,29.69,29.60,8,1,8,0.33
2013-10-18,64.1,55.7,49.7,55.6,51.4,48.0,95,86,72,29.71,29.63,5,0,5,0.00
2013-10-19,57.8,52.7,51.5,54.4,50.7,48.9,95,93,87,29.67,29.61,2,0,2,0.01
2013-10-20,59.8,49.4,42.1,46.7,42.3,37.8,94,78,47,29.74,29.64,4,0,6,0.00
2013-10-21,65.3,49.3,45.0,50.9,44.0,40.6,91,82,57,29.79,29.69,4,0,4,0.00
2013-10-22,65.2,55.5,51.7,52.9,49.7,47.7,89,81,62,29.72,29.56,5,0,5,0.00
2013-10-23,50.9,46.1,35.3,47.4,41.1,29.3,93,83,61,29.69,29.49,13,3,13,0.00
2013-10-24,52.2,41.3,32.4,38.6,34.4,28.3,91,78,56,29.80,29.67,8,1,8,0.00
2013-10-25,48.4,38.1,28.6,35.9,26.0,18.0,87,65,38,29.94,29.80,10,1,16,0.00
2013-10-26,54.0,39.6,31.3,34.0,28.0,24.3,76,65,40,29.92,29.77,8,0,8,0.00
2013-10-27,59.4,51.6,45.0,48.8,41.7,31.1,84,69,57,29.81,29.72,6,1,6,0.00
2013-10-28,61.9,54.9,51.5,55.2,49.8,47.3,89,83,69,29.93,29.79,4,0,4,0.02
2013-10-29,64.6,52.3,45.4,54.9,48.1,42.9,92,86,60,29.98,29.90,5,0,5,0.01
2013-10-30,69.3,61.0,55.3,56.4,53.5,50.5,86,77,60,29.96,29.84,5,0,6,0.00
2013-10-31,66.4,61.8,57.2,58.0,55.3,50.9,90,79,70,29.85,29.51,4,0,4,0.01